Location: Albany
(35.0170°S, 117.8920°E)
Time: 08:57:07
(UTC+08:00)

S-56A Canister/Altair - Pass Details

Date: 29 January 2021
Orbit: 632 x 2501 km, 38.9° (Epoch: 25 February)

Event Time Altitude Azimuth Distance (km) Brightness Sun altitude
Rises 08:57:37 0° 4° (N) 4,467 11.6 41.8°
Reaches altitude 10° 09:02:11 10° 26° (NNE) 3,875 11.6 42.8°
Maximum altitude 09:07:27 15° 56° (ENE) 3,865 12.1 43.8°
Drops below altitude 10° 09:13:34 10° 86° (E) 4,660 12.6 45.1°
Sets 09:20:03 0° 104° (ESE) 5,969 12.7 46.4°
